Tracking 20083 objects as of 12-Dec-2019
HD Live streaming from Space Station
objects crossing your sky now

FENGYUN 1C DEB

Track FENGYUN 1C DEB now!
10-day predictions


NORAD ID: 32243
Int'l Code: 1999-025CWR
Perigee: 711.3 km
Apogee: 1,178.3 km
Inclination: 98.3 °
Period: 103.8 minutes
Semi major axis: 7315 km
RCS: 0.0053 m2 (small)
Launch date: May 10, 1999
Source: People's Republic of China (PRC)
Launch site: Taiyaun Space Center, China (TSC)

Note: This is SATELLITE DEBRIS
aabbcc
Your satellite tracking list
Your tracking list is empty




NASA's NSSDC Master Catalog

Two Line Element Set (TLE):
1 32243U 99025CWR 19344.37256402  .00000539  00000-0  32471-3 0  9996
2 32243  98.2853 200.6813 0319146 129.6382 233.3409 13.87434071630681
Source of the keplerian elements: AFSPC